Home   Weather   Ensenada   Past weeks
Flag for Mexico

Past Weather in Ensenada, Baja California, Mexico — Yesterday and Last 2 Weeks

Now
57 °F

Light rain. Mostly cloudy.


Feels Like: 56 °F
Forecast: 61 / 56 °F
Wind: 7 mph from West

Location: Tijuana International Airport

Current Time: May 26, 2019 at 10:33:22 am

Latest Report: May 26, 2019 at 9:50 am


Visibility: 4 mi

Pressure: 29.99 "Hg

Humidity: 88%

Dew Point: 54 °F

Location of EnsenadaLocation

Past Weather in Ensenada — Graph

°F

Ensenada Temperature Yesterday

Maximum temperature yesterday: 66 °F (at 4:51 pm)
Minimum temperature yesterday: 52 °F (at 4:44 am)
Average temperature yesterday: 59 °F

High & Low Weather Summary for the Past Weeks

 TemperatureHumidityPressure
High72 °F (May 12, 10:44 am)100% (May 12, 4:42 am)30.06 "Hg (May 12, 4:42 am)
Low50 °F (May 18, 4:41 am)43% (May 18, 12:51 pm)29.79 "Hg (May 22, 5:12 am)
Average60 °F77%29.98 "Hg
* Reported May 11 8:53 am — May 26 8:42 am, Ensenada. Weather by CustomWeather, © 2019

Note: Actual official high and low records may vary slightly from our data, if they occured in-between our weather recording intervals... More about our weather records

Advertising

Ensenada Weather History for the Previous 24 Hours

Scroll right to see more
 ConditionsComfort  
Time TempWeatherWind HumidityBarometerVisibility
8:42 am
Sun, May 26
55 °FRain. Mostly cloudy.No wind94%29.98 "Hg4 mi
8:20 am55 °FLight rain. Overcast.5 mph88%29.97 "Hg5 mi
7:48 am59 °FOvercast.13 mph77%29.92 "Hg8 mi
6:46 am57 °FOvercast.8 mph77%29.93 "Hg8 mi
5:46 am57 °FOvercast.3 mph77%29.92 "Hg8 mi
5:00 am57 °FPassing clouds.5 mph77%29.89 "Hg7 mi
10:40 pm
Sat, May 25
57 °FPassing clouds.No wind77%29.94 "Hg8 mi
9:42 pm57 °FPassing clouds.5 mph77%29.94 "Hg8 mi
8:50 pm57 °FPassing clouds.6 mph77%29.93 "Hg8 mi
7:53 pm59 °FClear.12 mph72%30.01 "Hg8 mi
6:42 pm63 °FSunny.12 mph64%29.90 "Hg10 mi
5:42 pm64 °FSunny.7 mph56%29.90 "Hg10 mi
4:51 pm66 °FPassing clouds.9 mph52%30.00 "Hg10 mi
3:41 pm64 °FPartly sunny.8 mph56%29.92 "Hg8 mi
2:47 pm63 °FMostly cloudy.14 mph64%29.93 "Hg8 mi
1:47 pm63 °FPartly sunny.13 mph64%29.98 "Hg8 mi
12:40 pm63 °FPartly sunny.6 mph68%29.96 "Hg8 mi
11:45 am63 °FPartly sunny.7 mph68%29.96 "Hg8 mi
10:49 am63 °FPartly sunny.6 mph68%29.98 "Hg8 mi
Weather by CustomWeather, © 2019

See weather overview